Date String (YYYY-MM-DD hh:mm:ss) UTC,Instrument flags,Ambient pressure (hPa),Sample flow (lpm),Bypass flow (lpm),Sample temperature (°C),Ambient temperature (°C),ASC tube jacket temperature (°C),LED temperature (°C),Box temperature (°C),Sample RH (%),Span deviation,Mass concentration (μg/m³),Mass concentration (μg/m³),Mass concentration (μg/m³)
DateTimeUTC,F1_M11,P_M11,Q1_M11,Q2_M11,T1_M11,T2_M11,T3_M11,T4_M11,T5_M11,U1_M11,ZSPAN_M11,X2_M11,X0_M11,X1_M11
2023-04-29 01:00:00,,0833.1,5.00,0.00,26.7,25.3,00.0,35.1,28.2,11.8,0000.0,0003.41,0008.27,0002.16
2023-04-29 01:01:00,,0833.1,4.99,0.00,26.6,25.2,00.0,35.1,28.2,12.0,0000.0,0003.39,0008.37,0002.13
2023-04-29 01:02:00,,0833.3,5.00,0.00,26.6,25.2,00.0,35.1,28.1,12.3,0000.0,0003.37,0008.27,0002.11
2023-04-29 01:03:00,,0833.5,5.00,0.00,26.6,25.1,00.0,35.1,28.1,12.2,0000.0,0003.38,0007.46,0002.10
2023-04-29 01:04:00,,0833.0,5.01,0.00,26.6,25.1,00.0,35.1,28.1,12.4,0000.0,0003.32,0007.40,0002.06
2023-04-29 01:05:00,,0833.3,5.00,0.00,26.6,25.0,00.0,35.1,28.1,12.4,0000.0,0003.31,0007.52,0002.04
2023-04-29 01:06:00,,0833.3,5.00,0.00,26.6,25.0,00.0,35.1,28.1,12.2,0000.0,0003.29,0007.79,0002.02
2023-04-29 01:07:00,,0833.4,5.00,0.00,26.6,25.0,00.0,35.1,28.1,12.5,0000.0,0003.22,0007.55,0001.98
2023-04-29 01:08:00,,0833.0,5.00,0.00,26.5,25.0,00.0,35.1,28.1,12.4,0000.0,0003.20,0007.48,0001.97
2023-04-29 01:09:00,,0833.0,5.00,0.00,26.5,25.0,00.0,35.1,28.1,12.1,0000.0,0003.18,0008.15,0001.98
2023-04-29 01:10:00,,0833.1,5.00,0.00,26.5,25.0,00.0,35.0,28.1,12.0,0000.0,0003.17,0008.51,0001.98
2023-04-29 01:11:00,,0833.1,5.02,0.00,26.5,25.0,00.0,35.0,28.1,11.9,0000.0,0003.17,0008.95,0001.99
2023-04-29 01:12:00,,0833.0,5.00,0.00,26.5,25.0,00.0,35.0,28.0,12.1,0000.0,0003.18,0008.84,0002.01
2023-04-29 01:13:00,,0833.0,5.00,0.00,26.5,25.0,00.0,35.0,28.1,11.9,0000.0,0003.14,0008.66,0002.01
2023-04-29 01:14:00,,0832.9,5.00,0.00,26.5,25.0,00.0,35.0,28.1,12.0,0000.0,0003.15,0008.67,0002.02
2023-04-29 01:15:00,,0832.9,5.00,0.00,26.5,25.1,00.0,35.0,28.1,12.1,0000.0,0003.16,0008.44,0002.04
2023-04-29 01:16:00,,0832.9,5.00,0.00,26.5,25.1,00.0,35.0,28.1,12.2,0000.0,0003.18,0008.40,0002.04
2023-04-29 01:17:00,,0832.9,5.00,0.00,26.5,25.1,00.0,35.0,28.1,12.2,0000.0,0003.22,0008.22,0002.05
2023-04-29 01:18:00,,0833.0,5.01,0.00,26.5,25.1,00.0,35.0,28.1,11.7,0000.0,0003.24,0008.21,0002.06
2023-04-29 01:19:00,,0832.9,5.00,0.00,26.5,25.1,00.0,35.0,28.1,11.9,0000.0,0003.26,0008.31,0002.06
2023-04-29 01:20:00,,0833.0,5.00,0.00,26.5,25.1,00.0,35.0,28.1,12.2,0000.0,0003.28,0007.83,0002.06
2023-04-29 01:21:00,,0833.4,5.00,0.00,26.5,25.1,00.0,35.0,28.1,12.3,0000.0,0003.28,0007.61,0002.05
2023-04-29 01:22:00,,0833.4,5.01,0.00,26.5,25.1,00.0,35.0,28.1,12.2,0000.0,0003.32,0007.42,0002.07
2023-04-29 01:23:00,,0833.2,5.00,0.00,26.5,25.1,00.0,35.0,28.1,12.4,0000.0,0003.33,0007.64,0002.09
2023-04-29 01:24:00,,0833.0,5.00,0.00,26.5,25.1,00.0,35.0,28.1,12.3,0000.0,0003.37,0008.42,0002.14
2023-04-29 01:25:00,,0833.0,5.00,0.00,26.5,25.0,00.0,35.0,28.1,12.4,0000.0,0003.40,0009.39,0002.16
2023-04-29 01:26:00,,0833.1,5.00,0.00,26.5,25.0,00.0,35.0,28.0,12.6,0000.0,0003.43,0009.58,0002.19
2023-04-29 01:27:00,,0833.0,5.00,0.00,26.5,25.0,00.0,35.0,28.0,12.7,0000.0,0003.46,0009.99,0002.22
2023-04-29 01:28:00,,0833.0,4.99,0.00,26.5,25.0,00.0,35.0,28.0,12.8,0000.0,0003.50,0010.29,0002.26
2023-04-29 01:29:00,,0833.0,5.00,0.00,26.4,24.9,00.0,35.0,28.0,13.0,0000.0,0003.53,0010.39,0002.29
2023-04-29 01:30:00,,0833.0,4.99,0.00,26.4,24.9,00.0,35.0,27.9,13.2,0000.0,0003.54,0010.37,0002.32
2023-04-29 01:31:00,,0833.0,5.00,0.00,26.4,24.9,00.0,35.0,27.9,13.1,0000.0,0003.56,0010.29,0002.35
2023-04-29 01:32:00,,0833.0,5.02,0.00,26.4,24.9,00.0,34.9,27.9,13.1,0000.0,0003.57,0010.58,0002.38
2023-04-29 01:33:00,,0833.1,5.00,0.00,26.4,24.9,00.0,34.9,27.9,13.1,0000.0,0003.55,0010.90,0002.38
2023-04-29 01:34:00,,0833.0,5.00,0.00,26.4,24.9,00.0,34.9,27.9,13.1,0000.0,0003.55,0011.18,0002.35
2023-04-29 01:35:00,,0833.3,4.99,0.00,26.4,24.8,00.0,34.9,27.9,13.1,0000.0,0003.54,0010.80,0002.33
2023-04-29 01:36:00,,0833.2,5.00,0.00,26.4,24.8,00.0,34.9,27.9,13.1,0000.0,0003.51,0010.41,0002.31
2023-04-29 01:37:00,,0833.2,5.02,0.00,26.3,24.7,00.0,34.9,27.8,13.1,0000.0,0003.48,0010.57,0002.30
2023-04-29 01:38:00,,0833.1,5.00,0.00,26.3,24.7,00.0,34.9,27.9,13.2,0000.0,0003.45,0010.15,0002.28
2023-04-29 01:39:00,,0833.2,4.99,0.00,26.3,24.7,00.0,34.9,27.8,13.2,0000.0,0003.36,0009.63,0002.27
2023-04-29 01:40:00,,0833.3,5.00,0.00,26.3,24.7,00.0,34.9,27.8,13.4,0000.0,0003.39,0009.69,0002.27
2023-04-29 01:41:00,,0833.3,5.01,0.00,26.3,24.7,00.0,34.8,27.8,13.3,0000.0,0003.42,0009.95,0002.26
2023-04-29 01:42:00,,0833.1,5.01,0.00,26.3,24.7,00.0,34.8,27.8,13.5,0000.0,0003.39,0009.89,0002.25
2023-04-29 01:43:00,,0833.6,4.99,0.00,26.3,24.7,00.0,34.8,27.8,13.7,0000.0,0003.38,0009.55,0002.23
2023-04-29 01:44:00,,0833.2,5.00,0.00,26.3,24.7,00.0,34.8,27.8,13.6,0000.0,0003.39,0009.05,0002.22
2023-04-29 01:45:00,,0833.1,5.00,0.00,26.3,24.7,00.0,34.8,27.8,13.6,0000.0,0003.35,0008.59,0002.23
2023-04-29 01:46:00,,0833.1,5.02,0.00,26.2,24.7,00.0,34.8,27.8,13.6,0000.0,0003.34,0008.21,0002.23
2023-04-29 01:47:00,,0833.1,5.00,0.00,26.2,24.6,00.0,34.8,27.8,13.7,0000.0,0003.34,0007.62,0002.23
2023-04-29 01:48:00,,0833.2,5.00,0.00,26.2,24.6,00.0,34.8,27.7,13.5,0000.0,0003.34,0007.33,0002.24
2023-04-29 01:49:00,,0833.2,4.99,0.00,26.2,24.6,00.0,34.8,27.7,13.6,0000.0,0003.36,0007.42,0002.23
2023-04-29 01:50:00,,0833.2,4.99,0.00,26.2,24.5,00.0,34.7,27.7,13.5,0000.0,0003.38,0007.40,0002.24
2023-04-29 01:51:00,,0833.2,5.00,0.00,26.2,24.5,00.0,34.7,27.7,13.4,0000.0,0003.36,0007.40,0002.24
2023-04-29 01:52:00,,0833.2,5.01,0.00,26.1,24.5,00.0,34.7,27.7,13.5,0000.0,0003.31,0007.37,0002.24
2023-04-29 01:53:00,,0833.2,4.99,0.00,26.1,24.5,00.0,34.7,27.7,13.6,0000.0,0003.29,0007.66,0002.23
2023-04-29 01:54:00,,0833.2,5.00,0.00,26.1,24.5,00.0,34.7,27.7,13.7,0000.0,0003.27,0007.98,0002.23
2023-04-29 01:55:00,,0833.2,5.00,0.00,26.1,24.5,00.0,34.7,27.7,13.6,0000.0,0003.33,0008.20,0002.24
2023-04-29 01:56:00,,0833.2,5.00,0.00,26.1,24.5,00.0,34.7,27.7,13.8,0000.0,0003.38,0008.33,0002.24
2023-04-29 01:57:00,,0833.2,5.00,0.00,26.1,24.4,00.0,34.7,27.6,13.8,0000.0,0003.38,0008.45,0002.24
2023-04-29 01:58:00,,0833.2,5.00,0.00,26.1,24.4,00.0,34.6,27.6,13.6,0000.0,0003.37,0008.44,0002.24
2023-04-29 01:59:00,,0833.3,4.99,0.00,26.1,24.4,00.0,34.6,27.6,13.4,0000.0,0003.35,0009.00,0002.24
